星链-3555 (STARLINK-3555 )

导读 | 豆包AI

STARLINK-3555是美国太空探索技术公司(SpaceX)发射的星链卫星,于北京时间2022年3月3日8时发射入轨,属于星链互联网卫星星座的组成部分,该星座旨在为全球用户提供低延迟、高速率的宽带互联网服务,该卫星服役已超4年,为星链网络覆盖能力提升提供支撑。

基本信息
目录编号:
51863
目录名称:
STARLINK-3555
国际标识:
2022-022M
轨道中心:
EARTH
卫星名称:
星链-3555
卫星全名:
星链-3555 (STARLINK-3555 )
卫星状态:
在轨 (已飞行1472 天)
发射日期:
2022-03-03 UTC
国别 :
美国 (US)
星等 :
--
轨道信息
数据来源 国际轨道数据 AOE轨道数据
星历时间 2026-03-14T19:25:02+0800
10小时前
查看轨道信息
2026-03-11T16:00:00+0800
3天前
查看轨道信息
半长轴 6917.873km 6917.822km
偏心率 0.000126 0.0001422
轨道倾角 53.218° 53.218°
近地点辐角 86.146° 81.801°
升交点赤经 347.637° 1.745°
平近点角 273.968° 120.306°
近地点 538.864km 538.701km
远地点 540.608km 540.669km
周期 95.437分钟 95.436分钟
每日圈数 15.088425 15.088593
详细信息
固有亮度:
5
最大亮度:
2.5
卫星平台:
Starlink v1.5
覆盖范围:
全球
运营商:
太空探索技术公司
运营商所在国:
美国
制造商(研发单位):
太空探索技术公司
制造商所在国:
美国
使用方式:
暂无
卫星简介
星链(Starlink)计划是由太空探索技术公司(SpaceX)提出的一个巨型低轨卫星互联网星座项目,计划在2019年至2024年间在太空搭建由约1.2万颗卫星组成的“星链”网络,其中1584颗将部署在地球上空550千米处的近地轨道,并从2020年开始工作。该卫星仍在工作。
2D轨道图
3D轨道图
轨道高度分析图
轨道倾角分析图
轨道综合分析图
查看轨道综合分析图